HST
1 20580U 90037B   24105.90955786  .00008176  00000-0  39631-3 0  9992
2 20580  28.4691  48.7882 0002667  65.3661 294.7209 15.16710571667413
ISS (ZARYA)
1 25544U 98067A   24106.11269851  .00018641  00000-0  33130-3 0  9999
2 25544  51.6384 268.1571 0004667  67.4021 292.7461 15.50210893448766
CXO
1 25867U 99040B   24107.04238756  .00000910  00000-0  00000-0 0  9999
2 25867  39.8445 159.8670 8948994 292.0276 359.9148  0.37809104 14330